[[{"header":{"parameterUnit":"m.s-1","parameterCategory":1,"la1":30.2991,"la2":30.254,"lo1":-89.0895,"lo2":-89.0444,"dy":0.0017,"dx":0.0017,"nx":28,"ny":28,"refTime":"2025-04-04T09:00:00:Z","depth":0,"parameterNumber":2,"parameterNumberName":"U-component_of_WINDS"},"data":[0,0,0,0,0,0,0,0,0,0,0,0,0,0,0,0,0,0,0,0,0,0,0,0,0,0,0,0,0,0,0,0,0,0,0,0,0,0,0,0,0,0,0,0,0,0,0,0,0,0,0,0,0,0,0,0,0,0,-5.291,-5.2911,0,-5.3042,-5.3043,-5.3045,-5.3021,-5.3019,-5.3017,-5.3015,-5.3149,-5.3154,-5.316,0,0,0,0,0,0,0,0,0,0,0,0,0,-5.2638,-5.2643,-5.291,-5.2911,-5.2913,-5.3041,-5.3043,-5.3045,-5.3022,-5.3019,-5.3016,-5.3014,-5.3147,-5.3153,-5.316,0,0,0,0,0,0,0,0,0,0,0,0,0,-5.2762,-5.2645,-5.2909,-5.2917,-5.2919,-5.3041,-5.3043,-5.3045,-5.3022,-5.3019,-5.3016,-5.3012,-5.3144,-5.3153,-5.3161,-5.3284,0,0,-5.3187,-5.3191,0,0,0,0,0,0,0,0,-5.2755,-5.2772,-5.2914,-5.2917,-5.2919,-5.3012,-5.2997,-5.3125,-5.3023,-5.2983,-5.3015,-5.3011,-5.3106,-5.3117,-5.315,-5.329,-5.3296,-5.3188,-5.3193,-5.3197,-5.32,0,0,0,0,0,0,0,-5.2746,-5.2766,-5.2962,-5.2916,-5.2919,-5.2914,-5.2928,-5.3021,-5.3062,-5.2986,-5.2985,-5.3001,-5.3106,-5.3141,-5.3153,-5.3298,-5.3188,-5.3196,-5.3201,-5.3204,-5.3546,-5.355,0,0,0,0,0,0,-5.2735,-5.2759,-5.2958,-5.2966,-5.2827,-5.2922,-5.2937,-5.2985,-5.3061,-5.3069,-5.3004,-5.2999,-5.3128,-5.3143,-5.3157,-5.3305,-5.3197,-5.3205,-5.321,-5.3543,-5.3547,-5.3552,0,0,0,0,0,0,-5.273,-5.2753,-5.2952,-5.2862,-5.2887,-5.293,-5.2985,-5.299,-5.3025,-5.3074,-5.3082,-5.3032,-5.3126,-5.3145,-5.3253,-5.331,-5.3209,-5.3217,-5.3538,-5.3544,-5.3549,-5.3603,0,0,0,0,0,0,-5.2722,-5.2751,-5.2798,-5.2863,-5.2892,-5.3045,-5.2988,-5.2995,-5.304,-5.3035,-5.3103,-5.311,-5.3125,-5.324,-5.3261,-5.332,-5.3223,-5.3533,-5.3541,-5.3548,-5.3596,-5.361,-5.3621,0,0,0,0,0,-5.2712,-5.2807,-5.28,-5.2824,-5.2951,-5.3049,-5.3065,-5.308,-5.3044,-5.3092,-5.3124,-5.3108,-5.3301,-5.3251,-5.3275,-5.3337,-5.3529,-5.3538,-5.3547,-5.359,-5.3607,-5.3621,0,0,0,0,0,0,-5.2746,-5.2816,-5.2809,-5.2928,-5.2983,-5.3045,-5.3104,-5.3097,-5.3163,-5.3156,-5.3172,-5.3187,-5.3296,-5.3328,-5.3271,-5.346,-5.341,-5.3424,-5.3435,-5.3451,-5.3464,-5.3452,-5.3231,0,0,0,0,0,-5.2768,-5.2841,-5.2898,-5.2998,-5.3026,-5.3061,-5.3104,-5.3111,-5.3168,-5.3191,-5.3231,-5.3287,-5.336,-5.3408,-5.3478,-5.3602,-5.3616,-5.3656,-5.3669,-5.3679,-5.369,-5.3758,-5.3776,-5.3581,-5.3581,-5.358,0,0,-5.2812,-5.286,-5.2905,-5.3006,-5.3049,-5.3125,-5.308,-5.3162,-5.3218,-5.3203,-5.3307,-5.3339,-5.3403,-5.3519,-5.3572,-5.3549,-5.3748,-5.369,-5.3698,-5.3704,-5.3769,-5.3788,-5.3804,-5.3587,-5.3586,-5.3585,0,0,-5.2932,-5.2976,-5.3063,-5.3108,-5.3175,-5.3198,-5.322,-5.3284,-5.3304,-5.3409,-5.34,-5.3468,-5.3593,-5.3639,-5.3679,-5.382,-5.3808,-5.3843,-5.3908,-5.3974,-5.3989,-5.4003,-5.4052,-5.407,-5.3854,-5.3854,-5.3854,0,-5.2978,-5.3092,-5.3109,-5.3193,-5.3237,-5.3229,-5.3318,-5.3361,-5.3447,-5.3478,-5.3451,-5.361,-5.3652,-5.3779,-5.3813,-5.3847,-5.3871,-5.3833,-5.3986,-5.4,-5.4013,-5.406,-5.4078,-5.3858,-5.3857,-5.3857,-5.3857,0,-5.3146,-5.3226,-5.3289,-5.3373,-5.3425,-5.3511,-5.3541,-5.3592,-5.3596,-5.3622,-5.373,-5.3781,-5.3862,-5.3893,-5.3897,-5.4021,-5.4005,-5.3982,-5.3931,-5.4035,-5.4079,-5.4097,-5.3863,-5.3862,-5.3861,-5.386,0,0,-5.3287,-5.3382,-5.3404,-5.3443,-5.3517,-5.3579,-5.3666,-5.3745,-5.3788,-5.3849,-5.3922,-5.403,-5.401,-5.4055,-5.4065,-5.4123,-5.4231,-5.4093,-5.4095,-5.4116,-5.437,-5.4385,-5.4406,-5.4225,-5.4229,-5.4231,-5.4364,0,-5.3412,-5.3564,-5.3583,-5.3718,-5.3792,-5.3787,-5.3862,-5.3916,-5.3944,-5.4011,-5.4042,-5.4118,-5.4086,-5.4114,-5.4172,-5.4205,-5.4282,-5.4197,-5.4291,-5.4294,-5.4273,-5.4429,-5.4445,-5.4568,-5.4382,-5.4385,-5.4387,0,-5.3578,-5.3644,-5.3786,-5.3852,-5.3884,-5.3951,-5.4026,-5.4091,-5.4153,-5.4169,-5.4221,-5.4224,-5.4314,-5.4263,-5.4386,-5.4328,-5.4369,-5.4392,-5.4397,-5.4404,-5.4345,-5.4438,-5.4607,-5.4625,-5.4415,-5.4413,-5.4411,0,-5.3664,-5.3789,-5.3891,-5.3924,-5.4004,-5.4051,-5.4087,-5.4146,-5.4193,-5.4259,-5.429,-5.4366,-5.4407,-5.4466,-5.449,-5.445,-5.4612,-5.4563,-5.4627,-5.4627,-5.4659,-5.4656,-5.4834,-5.469,-5.4689,-5.4689,-5.4688,0,-5.38,-5.3887,-5.3931,-5.3993,-5.4091,-5.4113,-5.4209,-5.4243,-5.4296,-5.4364,-5.4366,-5.4431,-5.4459,-5.4529,-5.4549,-5.4648,-5.4667,-5.4682,-5.4686,-5.4681,-5.4678,-5.4705,-5.4696,-5.4694,-5.4693,-5.4692,-5.4691,0,-5.3912,-5.3945,-5.4055,-5.4122,-5.4141,-5.421,-5.4268,-5.4329,-5.4357,-5.4444,-5.4466,-5.4511,-5.4593,-5.4624,-5.4724,-5.4737,-5.4851,-5.4849,-5.483,-5.483,-5.4892,-5.4885,-5.5092,-5.512,-5.4959,-5.496,-5.4962,0,-5.3995,-5.4062,-5.4137,-5.4184,-5.4221,-5.4296,-5.4344,-5.437,-5.4421,-5.4498,-5.4549,-5.4631,-5.4698,-5.4829,-5.4871,-5.4947,-5.4946,-5.5013,-5.4957,-5.495,-5.4945,-5.4939,-5.4946,-5.5022,-5.5024,-5.5025,-5.5026,0,-5.4139,-5.4152,-5.4222,-5.4299,-5.4357,-5.4419,-5.4479,-5.4517,-5.4552,-5.4609,-5.4693,-5.4745,-5.4848,-5.4929,-5.5009,-5.5045,-5.5042,-5.5045,-5.5063,-5.5057,-5.5042,-5.5049,-5.4856,-5.5039,-5.5037,-5.5037,-5.5036,-5.5035,-5.4237,-5.4297,-5.4359,-5.4438,-5.4486,-5.4542,-5.4603,-5.464,-5.4711,-5.4796,-5.4808,-5.4898,-5.4961,-5.5067,-5.5108,-5.5179,-5.5161,-5.5188,-5.5195,-5.5201,-5.5204,-5.5034,-5.5194,-5.5194,-5.5194,-5.5193,-5.5193,0,-5.438,-5.442,-5.4493,-5.4577,-5.4639,-5.4633,-5.4699,-5.4751,-5.4831,-5.489,-5.4956,-5.5053,-5.5133,-5.5182,-5.5262,-5.531,-5.531,-5.533,-5.5325,-5.5334,-5.5217,-5.5191,-5.5328,-5.5328,-5.5328,-5.5328,-5.5328,-5.5328,-5.4461,-5.4561,-5.4582,-5.4707,-5.4747,-5.4836,-5.4875,-5.4927,-5.4974,-5.5083,-5.5149,-5.5181,-5.5237,-5.5321,-5.5394,-5.5407,-5.5435,-5.5456,-5.5467,-5.5356,-5.5342,-5.5328,-5.5305,-5.5463,-5.5463,-5.5578,-5.5579,-5.5579]},{"header":{"parameterUnit":"m.s-1","parameterCategory":1,"la1":30.2991,"la2":30.254,"lo1":-89.0895,"lo2":-89.0444,"dy":0.0017,"dx":0.0017,"nx":28,"ny":28,"refTime":"2025-04-04T09:00:00:Z","depth":0,"parameterNumber":3,"parameterNumberName":"V-component_of_WINDS"},"data":[0,0,0,0,0,0,0,0,0,0,0,0,0,0,0,0,0,0,0,0,0,0,0,0,0,0,0,0,0,0,0,0,0,0,0,0,0,0,0,0,0,0,0,0,0,0,0,0,0,0,0,0,0,0,0,0,0,0,2.6564,2.6565,0,2.6641,2.6642,2.6643,2.6668,2.6668,2.6668,2.6667,2.6745,2.6748,2.675,0,0,0,0,0,0,0,0,0,0,0,0,0,2.644,2.6442,2.6564,2.6565,2.6566,2.6641,2.6642,2.6643,2.6668,2.6668,2.6668,2.6667,2.6745,2.6747,2.675,0,0,0,0,0,0,0,0,0,0,0,0,0,2.6503,2.6443,2.6564,2.6588,2.6591,2.6641,2.6642,2.6644,2.6669,2.6668,2.6668,2.6667,2.6744,2.6747,2.6751,2.6783,0,0,2.6762,2.6763,0,0,0,0,0,0,0,0,2.65,2.6508,2.6583,2.6586,2.6589,2.6645,2.6627,2.669,2.6669,2.6639,2.6667,2.6667,2.6712,2.6718,2.6734,2.6787,2.679,2.6762,2.6764,2.6766,2.6767,0,0,0,0,0,0,0,2.6495,2.6505,2.6595,2.6584,2.6588,2.6595,2.6604,2.6639,2.6677,2.6641,2.6643,2.6652,2.6714,2.673,2.6736,2.6791,2.6762,2.6765,2.6767,2.6769,2.6878,2.6879,0,0,0,0,0,0,2.6487,2.6501,2.6592,2.6597,2.6543,2.6598,2.6607,2.6627,2.6677,2.6684,2.6653,2.6653,2.6725,2.6732,2.6739,2.6782,2.6766,2.6769,2.6771,2.6877,2.6878,2.6879,0,0,0,0,0,0,2.6484,2.6495,2.6589,2.655,2.6562,2.66,2.6623,2.6629,2.6646,2.6686,2.6693,2.6663,2.6724,2.6734,2.6773,2.6785,2.6771,2.6774,2.6876,2.6878,2.6879,2.6868,0,0,0,0,0,0,2.6481,2.6494,2.6505,2.655,2.6564,2.6621,2.6624,2.6631,2.6652,2.6654,2.6697,2.6703,2.6725,2.6767,2.6776,2.679,2.6777,2.6875,2.6877,2.6878,2.6867,2.6868,2.6869,0,0,0,0,0,2.6476,2.6498,2.6506,2.6517,2.658,2.6622,2.663,2.6654,2.6653,2.6666,2.6692,2.6702,2.6782,2.6771,2.6781,2.6796,2.6875,2.6877,2.6878,2.6867,2.6868,2.6869,0,0,0,0,0,0,2.6453,2.6504,2.6513,2.655,2.6582,2.6626,2.6642,2.6655,2.6686,2.6686,2.6715,2.6725,2.6762,2.6783,2.677,2.6832,2.6829,2.6833,2.6817,2.6819,2.682,2.6814,2.678,0,0,0,0,0,2.6453,2.6482,2.6525,2.6554,2.6569,2.6603,2.6622,2.6639,2.6672,2.6685,2.6714,2.6746,2.6779,2.68,2.6832,2.6871,2.6882,2.6886,2.6887,2.6888,2.6891,2.6916,2.6919,2.6885,2.6885,2.6885,0,0,2.6451,2.6483,2.65,2.655,2.6576,2.6608,2.6614,2.6646,2.6669,2.669,2.6729,2.6752,2.679,2.683,2.6848,2.6848,2.6904,2.689,2.689,2.6893,2.6918,2.6921,2.6924,2.6886,2.6886,2.6885,0,0,2.6465,2.6491,2.652,2.6547,2.6587,2.661,2.6617,2.666,2.6676,2.6717,2.6734,2.6763,2.6818,2.6845,2.6866,2.6895,2.6906,2.6905,2.6911,2.6935,2.6937,2.694,2.6952,2.6956,2.6908,2.6908,2.6908,0,2.6458,2.6505,2.6532,2.6565,2.6587,2.661,2.664,2.6664,2.6712,2.6728,2.6727,2.68,2.6827,2.6875,2.6882,2.6898,2.6908,2.69,2.6935,2.6938,2.6941,2.6953,2.6957,2.6907,2.6907,2.6907,2.6908,0,2.6497,2.6529,2.6547,2.6595,2.662,2.6651,2.6684,2.6706,2.6722,2.6745,2.6788,2.6821,2.6862,2.6875,2.6889,2.6926,2.6925,2.6929,2.6927,2.6943,2.6955,2.696,2.6907,2.6907,2.6907,2.6907,0,0,2.6495,2.6561,2.6567,2.6591,2.6639,2.6665,2.6698,2.6739,2.6759,2.6792,2.6822,2.687,2.6876,2.69,2.6918,2.6939,2.6963,2.6941,2.6942,2.6945,2.7008,2.7005,2.701,2.6971,2.6972,2.6973,2.7006,0,2.6517,2.6576,2.6604,2.6651,2.6684,2.6707,2.6736,2.677,2.6794,2.6825,2.6851,2.6886,2.6889,2.6905,2.6927,2.6955,2.6976,2.6953,2.7,2.7001,2.699,2.7016,2.7012,2.7042,2.701,2.7011,2.7012,0,2.6548,2.6584,2.6635,2.6683,2.6698,2.6723,2.6765,2.6794,2.6834,2.685,2.6879,2.6897,2.6935,2.6931,2.6983,2.6967,2.6988,2.7006,2.7008,2.7013,2.7007,2.7024,2.7052,2.7056,2.7019,2.7018,2.7018,0,2.6544,2.6605,2.6645,2.6664,2.672,2.6738,2.6762,2.6801,2.6826,2.6863,2.6879,2.6919,2.6942,2.6973,2.7003,2.6996,2.7054,2.7051,2.7069,2.7069,2.708,2.7079,2.7113,2.7092,2.7092,2.7092,2.7092,0,2.6565,2.6596,2.6645,2.6669,2.6706,2.6738,2.6773,2.6799,2.6835,2.6865,2.6888,2.6917,2.6954,2.6987,2.7011,2.7053,2.7062,2.7077,2.7083,2.7076,2.7074,2.709,2.7089,2.7093,2.7093,2.7093,2.7092,0,2.6567,2.66,2.6645,2.6696,2.671,2.6734,2.6778,2.6804,2.683,2.6869,2.688,2.6922,2.6963,2.6996,2.705,2.7066,2.711,2.7116,2.7097,2.71,2.7117,2.7116,2.7163,2.7172,2.7144,2.7144,2.7145,0,2.6578,2.6603,2.6657,2.668,2.6704,2.674,2.6766,2.68,2.6826,2.6875,2.6896,2.6939,2.6975,2.7041,2.7076,2.7118,2.7126,2.714,2.7132,2.7125,2.7128,2.7127,2.7131,2.7141,2.7141,2.7141,2.7141,0,2.6595,2.6611,2.6647,2.6691,2.6722,2.6757,2.6793,2.6811,2.6852,2.688,2.6924,2.6952,2.7009,2.7052,2.7099,2.7125,2.714,2.7144,2.715,2.7143,2.7132,2.714,2.7101,2.7142,2.7142,2.7142,2.7142,2.7142,2.6602,2.6627,2.667,2.6711,2.6742,2.6777,2.6804,2.6835,2.6872,2.6922,2.694,2.6985,2.7028,2.7092,2.7119,2.7155,2.7156,2.7165,2.7168,2.717,2.717,2.7126,2.7164,2.7164,2.7164,2.7164,2.7164,0,2.6622,2.6652,2.6689,2.674,2.6773,2.6787,2.6828,2.6855,2.6895,2.6934,2.697,2.7022,2.7066,2.7106,2.7152,2.7174,2.7182,2.7185,2.7184,2.719,2.7166,2.7156,2.7177,2.7177,2.7177,2.7177,2.7177,2.7177,2.6636,2.6679,2.6701,2.6761,2.6791,2.6837,2.686,2.6893,2.6924,2.6981,2.7018,2.7044,2.7085,2.7134,2.7176,2.7186,2.7203,2.7204,2.7216,2.7193,2.7191,2.7189,2.7181,2.7207,2.7207,2.7238,2.7238,2.7238]}]]